Time,TemperatureF,DewpointF,PressureIn,WindDirection,WindDirectionDegrees,WindSpeedMPH,WindSpeedGustMPH,Humidity,HourlyPrecipIn,Conditions,Clouds,dailyrainin,SolarRadiationWatts/m^2,SoftwareType,DateUTC
2013-04-05 00:00:00,69.8,69.0,29.99,East,101,1.0,3.0,98,0.00,,,0.34,0,weatherlink.com 1.10,2013-04-05 04:00:00,
2013-04-05 00:15:00,69.7,69.0,30.00,SW,220,0.0,2.0,97,0.04,,,0.04,0,weatherlink.com 1.10,2013-04-05 04:15:00,
2013-04-05 00:30:00,69.8,69.0,30.00,WSW,238,1.0,5.0,98,0.12,,,0.12,0,weatherlink.com 1.10,2013-04-05 04:30:00,
2013-04-05 00:46:00,69.7,69.0,30.01,SW,236,0.0,3.0,97,0.17,,,0.17,0,weatherlink.com 1.10,2013-04-05 04:46:00,
2013-04-05 01:00:00,69.7,69.0,30.00,SSW,212,2.0,3.0,98,0.20,,,0.20,0,weatherlink.com 1.10,2013-04-05 05:00:00,
2013-04-05 01:16:00,69.7,69.0,30.00,WSW,238,1.0,2.0,97,0.17,,,0.21,0,weatherlink.com 1.10,2013-04-05 05:16:00,
2013-04-05 01:31:00,69.0,68.0,29.97,West,275,0.0,5.0,96,0.09,,,0.21,0,weatherlink.com 1.10,2013-04-05 05:31:00,
2013-04-05 01:46:00,68.8,68.0,29.95,WNW,295,0.0,2.0,96,0.03,,,0.21,0,weatherlink.com 1.10,2013-04-05 05:46:00,
2013-04-05 02:01:00,68.5,67.0,29.93,WNW,295,0.0,1.0,96,0.01,,,0.21,0,weatherlink.com 1.10,2013-04-05 06:01:00,
2013-04-05 02:16:00,68.2,67.0,29.93,WNW,295,0.0,1.0,96,0.00,,,0.21,0,weatherlink.com 1.10,2013-04-05 06:16:00,
2013-04-05 03:01:00,67.9,66.0,29.90,West,265,2.0,6.0,94,0.03,,,0.24,0,weatherlink.com 1.10,2013-04-05 07:01:00,
2013-04-05 03:46:00,66.8,65.0,29.93,WSW,239,2.0,3.0,94,0.01,,,0.25,0,weatherlink.com 1.10,2013-04-05 07:46:00,
2013-04-05 04:01:00,66.6,65.0,29.94,SW,219,1.0,3.0,94,0.02,,,0.26,0,weatherlink.com 1.10,2013-04-05 08:01:00,
2013-04-05 04:16:00,66.3,65.0,29.94,SW,223,0.0,2.0,95,0.01,,,0.26,0,weatherlink.com 1.10,2013-04-05 08:16:00,
2013-04-05 04:31:00,66.0,65.0,29.94,SSE,152,0.0,5.0,95,0.01,,,0.26,0,weatherlink.com 1.10,2013-04-05 08:31:00,
2013-04-05 04:46:00,65.9,65.0,29.93,SSE,155,0.0,2.0,96,0.01,,,0.26,0,weatherlink.com 1.10,2013-04-05 08:46:00,
2013-04-05 05:01:00,65.9,65.0,29.94,SSE,168,1.0,4.0,96,0.01,,,0.27,0,weatherlink.com 1.10,2013-04-05 09:01:00,
2013-04-05 05:16:00,66.0,65.0,29.92,South,181,2.0,6.0,96,0.01,,,0.27,0,weatherlink.com 1.10,2013-04-05 09:16:00,
2013-04-05 05:31:00,66.0,65.0,29.88,SSE,155,6.0,11.0,95,0.01,,,0.27,0,weatherlink.com 1.10,2013-04-05 09:31:00,
2013-04-05 05:46:00,66.0,65.0,29.89,SSE,152,2.0,6.0,95,0.01,,,0.27,0,weatherlink.com 1.10,2013-04-05 09:46:00,
2013-04-05 06:01:00,66.0,65.0,29.87,ESE,117,4.0,7.0,95,0.00,,,0.27,0,weatherlink.com 1.10,2013-04-05 10:01:00,
2013-04-05 06:16:00,65.9,65.0,29.89,WSW,241,0.0,4.0,95,0.00,,,0.27,0,weatherlink.com 1.10,2013-04-05 10:16:00,
2013-04-05 06:31:00,65.9,65.0,29.90,SW,214,0.0,3.0,95,0.00,,,0.27,0,weatherlink.com 1.10,2013-04-05 10:31:00,
2013-04-05 06:46:00,65.8,64.0,29.91,SSW,196,2.0,6.0,95,0.00,,,0.27,0,weatherlink.com 1.10,2013-04-05 10:46:00,
2013-04-05 07:01:00,65.8,64.0,29.89,SSE,150,2.0,6.0,95,0.00,,,0.27,0,weatherlink.com 1.10,2013-04-05 11:01:00,
2013-04-05 07:16:00,65.7,65.0,29.88,South,188,0.0,3.0,96,0.00,,,0.27,0,weatherlink.com 1.10,2013-04-05 11:16:00,
2013-04-05 07:46:00,65.9,65.0,29.88,South,183,1.0,3.0,95,0.00,,,0.27,18,weatherlink.com 1.10,2013-04-05 11:46:00,
2013-04-05 08:01:00,66.1,65.0,29.88,South,184,0.0,1.0,95,0.00,,,0.27,26,weatherlink.com 1.10,2013-04-05 12:01:00,
2013-04-05 08:31:00,67.1,65.0,29.89,South,184,0.0,1.0,94,0.00,,,0.27,65,weatherlink.com 1.10,2013-04-05 12:31:00,
2013-04-05 08:46:00,67.7,66.0,29.91,South,184,0.0,1.0,93,0.00,,,0.27,81,weatherlink.com 1.10,2013-04-05 12:46:00,
2013-04-05 09:01:00,68.3,66.0,29.93,NNW,327,0.0,3.0,91,0.00,,,0.27,79,weatherlink.com 1.10,2013-04-05 13:01:00,
2013-04-05 09:16:00,68.6,66.0,29.95,NNW,336,0.0,3.0,92,0.00,,,0.27,98,weatherlink.com 1.10,2013-04-05 13:16:00,
2013-04-05 09:31:00,68.9,66.0,29.96,WNW,302,0.0,3.0,90,0.00,,,0.27,74,weatherlink.com 1.10,2013-04-05 13:31:00,
2013-04-05 09:46:00,69.2,66.0,29.97,West,275,1.0,4.0,90,0.00,,,0.27,84,weatherlink.com 1.10,2013-04-05 13:46:00,
2013-04-05 10:01:00,69.2,66.0,29.97,WSW,251,3.0,4.0,90,0.00,,,0.27,91,weatherlink.com 1.10,2013-04-05 14:01:00,
2013-04-05 10:17:00,68.8,66.0,29.96,WSW,246,0.0,3.0,91,0.00,,,0.27,60,weatherlink.com 1.10,2013-04-05 14:17:00,
2013-04-05 10:31:00,68.4,66.0,29.95,WSW,248,0.0,2.0,92,0.01,,,0.28,63,weatherlink.com 1.10,2013-04-05 14:31:00,
2013-04-05 10:46:00,68.1,66.0,29.95,WSW,248,1.0,2.0,93,0.01,,,0.28,30,weatherlink.com 1.10,2013-04-05 14:46:00,
2013-04-05 11:01:00,68.0,66.0,29.94,WSW,248,0.0,2.0,94,0.01,,,0.28,86,weatherlink.com 1.10,2013-04-05 15:01:00,
2013-04-05 11:16:00,68.4,67.0,29.93,WSW,244,0.0,2.0,94,0.01,,,0.28,104,weatherlink.com 1.10,2013-04-05 15:16:00,
2013-04-05 11:32:00,68.9,67.0,29.92,WSW,244,0.0,1.0,94,0.00,,,0.28,134,weatherlink.com 1.10,2013-04-05 15:32:00,
2013-04-05 11:47:00,69.8,67.0,29.92,WSW,244,1.0,2.0,92,0.00,,,0.28,160,weatherlink.com 1.10,2013-04-05 15:47:00,
2013-04-05 12:02:00,70.4,67.0,29.94,SW,233,2.0,4.0,90,0.00,,,0.28,105,weatherlink.com 1.10,2013-04-05 16:02:00,
2013-04-05 12:17:00,70.7,67.0,29.93,SW,235,3.0,6.0,89,0.00,,,0.28,107,weatherlink.com 1.10,2013-04-05 16:17:00,
2013-04-05 12:32:00,70.4,67.0,29.93,SSE,152,0.0,5.0,89,0.00,,,0.28,63,weatherlink.com 1.10,2013-04-05 16:32:00,
2013-04-05 12:47:00,70.3,67.0,29.91,SSE,164,1.0,7.0,88,0.00,,,0.28,47,weatherlink.com 1.10,2013-04-05 16:47:00,
2013-04-05 13:02:00,70.5,67.0,29.91,WSW,239,3.0,9.0,88,0.00,,,0.28,104,weatherlink.com 1.10,2013-04-05 17:02:00,
2013-04-05 13:17:00,71.2,67.0,29.91,WSW,238,3.0,6.0,86,0.00,,,0.28,197,weatherlink.com 1.10,2013-04-05 17:17:00,
2013-04-05 13:32:00,71.3,67.0,29.91,WSW,238,0.0,8.0,86,0.00,,,0.28,127,weatherlink.com 1.10,2013-04-05 17:32:00,
2013-04-05 13:47:00,70.9,67.0,29.89,SW,226,0.0,8.0,86,0.00,,,0.28,67,weatherlink.com 1.10,2013-04-05 17:47:00,
2013-04-05 14:02:00,70.8,67.0,29.89,SW,229,1.0,4.0,87,0.00,,,0.28,114,weatherlink.com 1.10,2013-04-05 18:02:00,
2013-04-05 14:17:00,70.8,67.0,29.88,SSW,206,1.0,7.0,88,0.00,,,0.28,111,weatherlink.com 1.10,2013-04-05 18:17:00,
2013-04-05 14:32:00,70.7,67.0,29.88,WSW,256,2.0,7.0,88,0.00,,,0.28,60,weatherlink.com 1.10,2013-04-05 18:32:00,
2013-04-05 14:47:00,69.8,67.0,29.88,SW,225,4.0,6.0,91,0.01,,,0.29,44,weatherlink.com 1.10,2013-04-05 18:47:00,
2013-04-05 15:02:00,69.2,67.0,29.88,SW,229,3.0,6.0,93,0.02,,,0.30,30,weatherlink.com 1.10,2013-04-05 19:02:00,
2013-04-05 15:17:00,68.6,67.0,29.86,SW,234,3.0,6.0,94,0.04,,,0.32,37,weatherlink.com 1.10,2013-04-05 19:17:00,
2013-04-05 15:32:00,68.1,67.0,29.88,WNW,284,3.0,6.0,95,0.08,,,0.36,30,weatherlink.com 1.10,2013-04-05 19:32:00,
2013-04-05 15:47:00,67.4,66.0,29.87,West,271,1.0,7.0,94,0.10,,,0.39,44,weatherlink.com 1.10,2013-04-05 19:47:00,
2013-04-05 16:02:00,66.9,66.0,29.86,SW,229,3.0,5.0,95,0.09,,,0.39,53,weatherlink.com 1.10,2013-04-05 20:02:00,
2013-04-05 16:17:00,67.0,66.0,29.85,WSW,247,1.0,4.0,96,0.07,,,0.39,30,weatherlink.com 1.10,2013-04-05 20:17:00,
2013-04-05 16:32:00,67.5,66.0,29.83,SW,232,1.0,4.0,96,0.03,,,0.39,165,weatherlink.com 1.10,2013-04-05 20:32:00,
2013-04-05 16:47:00,68.1,67.0,29.85,SW,236,0.0,4.0,95,0.00,,,0.39,88,weatherlink.com 1.10,2013-04-05 20:47:00,
2013-04-05 17:02:00,68.3,67.0,29.84,SSE,161,2.0,8.0,95,0.00,,,0.39,111,weatherlink.com 1.10,2013-04-05 21:02:00,
2013-04-05 17:17:00,68.3,67.0,29.85,WSW,241,2.0,6.0,95,0.01,,,0.40,74,weatherlink.com 1.10,2013-04-05 21:17:00,
2013-04-05 17:32:00,67.9,66.0,29.85,SW,234,4.0,10.0,93,0.01,,,0.40,114,weatherlink.com 1.10,2013-04-05 21:32:00,
2013-04-05 17:47:00,68.1,66.0,29.85,SSW,208,0.0,8.0,93,0.01,,,0.40,137,weatherlink.com 1.10,2013-04-05 21:47:00,
2013-04-05 18:02:00,68.4,66.0,29.86,WSW,251,1.0,6.0,91,0.01,,,0.40,121,weatherlink.com 1.10,2013-04-05 22:02:00,
2013-04-05 18:17:00,68.3,66.0,29.85,SW,235,2.0,8.0,92,0.00,,,0.40,58,weatherlink.com 1.10,2013-04-05 22:17:00,
2013-04-05 18:32:00,68.3,66.0,29.83,SSW,207,2.0,4.0,92,0.00,,,0.40,86,weatherlink.com 1.10,2013-04-05 22:32:00,
2013-04-05 18:47:00,68.8,66.0,29.84,SW,234,1.0,6.0,91,0.00,,,0.40,90,weatherlink.com 1.10,2013-04-05 22:47:00,
2013-04-05 19:02:00,68.7,66.0,29.83,SW,236,0.0,4.0,91,0.00,,,0.40,83,weatherlink.com 1.10,2013-04-05 23:02:00,
2013-04-05 19:17:00,68.7,66.0,29.84,WSW,239,2.0,5.0,91,0.00,,,0.40,37,weatherlink.com 1.10,2013-04-05 23:17:00,
2013-04-05 19:32:00,68.1,66.0,29.84,SW,236,0.0,3.0,92,0.00,,,0.40,18,weatherlink.com 1.10,2013-04-05 23:32:00,
2013-04-05 19:47:00,67.7,66.0,29.85,SW,236,0.0,1.0,93,0.00,,,0.40,0,weatherlink.com 1.10,2013-04-05 23:47:00,
2013-04-05 20:02:00,67.3,66.0,29.86,SW,236,0.0,2.0,94,0.00,,,0.40,0,weatherlink.com 1.10,2013-04-06 00:02:00,
2013-04-05 20:17:00,67.0,65.0,29.86,SW,236,0.0,2.0,94,0.00,,,0.40,0,weatherlink.com 1.10,2013-04-06 00:17:00,
2013-04-05 20:32:00,66.9,66.0,29.86,SW,234,0.0,2.0,95,0.00,,,0.40,0,weatherlink.com 1.10,2013-04-06 00:32:00,
2013-04-05 20:47:00,66.7,65.0,29.86,SW,236,0.0,1.0,95,0.00,,,0.40,0,weatherlink.com 1.10,2013-04-06 00:47:00,
2013-04-05 21:02:00,66.6,66.0,29.87,WSW,257,0.0,2.0,96,0.00,,,0.40,0,weatherlink.com 1.10,2013-04-06 01:02:00,
2013-04-05 21:17:00,66.6,66.0,29.88,WSW,258,0.0,3.0,96,0.00,,,0.40,0,weatherlink.com 1.10,2013-04-06 01:17:00,
2013-04-05 21:32:00,66.7,66.0,29.88,WSW,258,0.0,1.0,96,0.00,,,0.40,0,weatherlink.com 1.10,2013-04-06 01:32:00,
2013-04-05 21:47:00,66.5,65.0,29.89,WSW,258,0.0,0.0,95,0.00,,,0.40,0,weatherlink.com 1.10,2013-04-06 01:47:00,
2013-04-05 22:02:00,66.0,65.0,29.90,WSW,258,0.0,0.0,95,0.00,,,0.40,0,weatherlink.com 1.10,2013-04-06 02:02:00,
2013-04-05 22:17:00,65.6,64.0,29.91,WSW,258,0.0,0.0,95,0.00,,,0.40,0,weatherlink.com 1.10,2013-04-06 02:17:00,
2013-04-05 22:32:00,65.4,64.0,29.91,WSW,258,0.0,0.0,94,0.00,,,0.40,0,weatherlink.com 1.10,2013-04-06 02:32:00,
2013-04-05 22:47:00,65.0,63.0,29.91,WSW,258,0.0,0.0,94,0.00,,,0.40,0,weatherlink.com 1.10,2013-04-06 02:47:00,
2013-04-05 23:02:00,64.5,63.0,29.91,WSW,258,0.0,0.0,94,0.00,,,0.40,0,weatherlink.com 1.10,2013-04-06 03:02:00,
2013-04-05 23:17:00,64.4,63.0,29.92,West,259,0.0,2.0,94,0.00,,,0.40,0,weatherlink.com 1.10,2013-04-06 03:17:00,
2013-04-05 23:32:00,64.9,63.0,29.92,North,350,0.0,3.0,92,0.00,,,0.40,0,weatherlink.com 1.10,2013-04-06 03:32:00,